Location: Iwkowa
(49.8210°N, 20.5761°E)
Time: 04:49:39
(UTC+01:00)

ISS - Visible Passes

Search period start: 24 November 2017 00:00
Search period end: 04 December 2017 00:00
Orbit: 402 x 407 km, 51.6° (Epoch: 24 November)

Date Brightness Start Highest point End Pass type
(mag) Time Alt. Az. Time Alt. Az. Time Alt. Az.
27 Nov -1.2 17:34:54 10° SSE 17:35:10 11° SSE 17:35:10 11° SSE visible
28 Nov -1.4 18:16:48 10° SW 18:17:50 18° SSW 18:17:50 18° SSW visible
29 Nov -2.3 17:24:59 10° SSW 17:27:37 22° SE 17:27:45 22° SE visible
30 Nov -1.6 16:33:38 10° S 16:35:27 14° SE 16:37:17 10° ESE visible
30 Nov -2.4 18:08:10 10° WSW 18:10:15 35° SW 18:10:15 35° SW visible
01 Dec -3.1 17:15:59 10° SW 17:19:06 40° SSE 17:20:01 31° ESE visible
01 Dec -0.5 18:52:12 10° W 18:52:40 13° W 18:52:40 13° W visible
02 Dec -2.3 16:24:02 10° SSW 16:26:49 26° SE 16:29:37 10° E visible
02 Dec -3.1 17:59:45 10° WSW 18:02:23 54° WSW 18:02:23 54° WSW visible
03 Dec -3.8 17:07:22 10° WSW 17:10:38 69° SSE 17:12:04 30° E visible
03 Dec -0.8 18:43:55 10° W 18:44:42 16° W 18:44:42 16° W visible
